Torna al catalogo

STARLINK-33654

AttivoComunicazioniVLEO
NORAD 63466·PAYLOAD·🇺🇸 United States

Lanciato Apr 6, 2025 da Cape Canaveral Space Force Station

Loading…

Prossimi Passaggi (prossime 24 ore)

TLE

AggiornatoSource: CelesTrak SupGP

Epoca: Sep 15, 2026, 02:15 UTC

1 63466C 25070G   26258.09423611 -.00000202  00000+0 -73169-5 0  2582
2 63466  43.0025 270.1575 0001436 265.1451  81.8992 15.27576156    19

Traccia STARLINK-33654 in tempo reale con AllMySat

Download on the App Store